Time,TemperatureF,DewpointF,PressureIn,WindDirection,WindDirectionDegrees,WindSpeedMPH,WindSpeedGustMPH,Humidity,HourlyPrecipIn,Conditions,Clouds,dailyrainin,SoftwareType,DateUTC
2013-03-03 00:02:00,16.0,9.0,30.22,NNW,347,0.0,0.0,75,0.00,,,0.00,,2013-03-03 06:02:00,
2013-03-03 00:11:00,16.0,9.0,30.22,NNW,347,0.0,0.0,75,0.00,,,0.00,,2013-03-03 06:11:00,
2013-03-03 00:21:00,14.0,8.0,30.21,NNW,347,0.0,0.0,76,0.00,,,0.00,,2013-03-03 06:21:00,
2013-03-03 00:31:00,14.0,8.0,30.21,NNW,347,0.0,0.0,77,0.00,,,0.00,,2013-03-03 06:31:00,
2013-03-03 00:42:00,14.0,8.0,30.21,NNW,347,0.0,0.0,77,0.00,,,0.00,,2013-03-03 06:42:00,
2013-03-03 00:52:00,15.0,10.0,30.21,NNW,347,0.0,0.0,79,0.00,,,0.00,,2013-03-03 06:52:00,
2013-03-03 01:01:00,15.0,10.0,30.21,NNW,347,0.0,0.0,80,0.00,,,0.00,,2013-03-03 07:01:00,
2013-03-03 01:11:00,15.0,10.0,30.21,NNW,347,0.0,0.0,80,0.00,,,0.00,,2013-03-03 07:11:00,
2013-03-03 01:21:00,16.0,11.0,30.21,NNW,347,0.0,0.0,81,0.00,,,0.00,,2013-03-03 07:21:00,
2013-03-03 01:31:00,16.0,11.0,30.21,NNW,347,0.0,0.0,81,0.00,,,0.00,,2013-03-03 07:31:00,
2013-03-03 01:42:00,16.0,11.0,30.21,NNW,347,0.0,0.0,81,0.00,,,0.00,,2013-03-03 07:42:00,
2013-03-03 01:52:00,16.0,11.0,30.21,NNW,347,0.0,0.0,81,0.00,,,0.00,,2013-03-03 07:52:00,
2013-03-03 02:01:00,16.0,11.0,30.20,NNW,347,0.0,0.0,80,0.00,,,0.00,,2013-03-03 08:01:00,
2013-03-03 02:11:00,16.0,11.0,30.20,NNW,347,0.0,0.0,80,0.00,,,0.00,,2013-03-03 08:11:00,
2013-03-03 02:21:00,13.0,7.0,30.20,NNW,347,0.0,0.0,77,0.00,,,0.00,,2013-03-03 08:21:00,
2013-03-03 02:31:00,13.0,7.0,30.19,NNW,347,0.0,0.0,78,0.00,,,0.00,,2013-03-03 08:31:00,
2013-03-03 02:41:00,13.0,7.0,30.19,NNW,347,0.0,0.0,78,0.00,,,0.00,,2013-03-03 08:41:00,
2013-03-03 02:54:00,13.0,8.0,30.18,NNW,347,0.0,0.0,80,0.00,,,0.00,,2013-03-03 08:54:00,
2013-03-03 03:01:00,13.0,8.0,30.18,NNW,347,0.0,0.0,80,0.00,,,0.00,,2013-03-03 09:01:00,
2013-03-03 03:11:00,13.0,8.0,30.18,NNW,347,0.0,0.0,80,0.00,,,0.00,,2013-03-03 09:11:00,
2013-03-03 03:21:00,13.0,8.0,30.18,NNW,347,0.0,0.0,81,0.00,,,0.00,,2013-03-03 09:21:00,
2013-03-03 03:32:00,13.0,8.0,30.17,NNW,347,0.0,0.0,81,0.00,,,0.00,,2013-03-03 09:32:00,
2013-03-03 03:41:00,13.0,8.0,30.17,NNW,347,0.0,0.0,81,0.00,,,0.00,,2013-03-03 09:41:00,
2013-03-03 03:52:00,13.0,8.0,30.17,NNW,347,0.0,0.0,81,0.00,,,0.00,,2013-03-03 09:52:00,
2013-03-03 04:01:00,13.0,8.0,30.17,NNW,347,0.0,0.0,81,0.00,,,0.00,,2013-03-03 10:01:00,
2013-03-03 04:11:00,13.0,8.0,30.17,NNW,347,0.0,0.0,81,0.00,,,0.00,,2013-03-03 10:11:00,
2013-03-03 04:21:00,13.0,8.0,30.17,NNW,347,0.0,0.0,81,0.00,,,0.00,,2013-03-03 10:21:00,
2013-03-03 04:32:00,13.0,8.0,30.17,NNW,347,0.0,0.0,81,0.00,,,0.00,,2013-03-03 10:32:00,
2013-03-03 04:42:00,13.0,8.0,30.17,NNW,347,0.0,0.0,81,0.00,,,0.00,,2013-03-03 10:42:00,
2013-03-03 04:52:00,14.0,10.0,30.18,NNW,347,0.0,0.0,83,0.00,,,0.00,,2013-03-03 10:52:00,
2013-03-03 05:01:00,13.0,8.0,30.18,NNW,347,0.0,0.0,80,0.00,,,0.00,,2013-03-03 11:01:00,
2013-03-03 05:11:00,13.0,8.0,30.18,NNW,347,0.0,0.0,80,0.00,,,0.00,,2013-03-03 11:11:00,
2013-03-03 05:21:00,12.0,7.0,30.18,NNW,347,0.0,0.0,80,0.00,,,0.00,,2013-03-03 11:21:00,
2013-03-03 05:32:00,12.0,7.0,30.19,NNW,347,0.0,0.0,81,0.00,,,0.00,,2013-03-03 11:32:00,
2013-03-03 05:42:00,12.0,7.0,30.19,NNW,347,0.0,0.0,81,0.00,,,0.00,,2013-03-03 11:42:00,
2013-03-03 05:52:00,12.0,7.0,30.19,NNW,347,0.0,0.0,80,0.00,,,0.00,,2013-03-03 11:52:00,
2013-03-03 06:01:00,12.0,7.0,30.19,NNW,347,0.0,0.0,79,0.00,,,0.00,,2013-03-03 12:01:00,
2013-03-03 06:11:00,12.0,7.0,30.19,NNW,347,0.0,0.0,79,0.00,,,0.00,,2013-03-03 12:11:00,
2013-03-03 06:21:00,13.0,8.0,30.18,NNW,347,0.0,0.0,81,0.00,,,0.00,,2013-03-03 12:21:00,
2013-03-03 06:32:00,12.0,7.0,30.18,NNW,347,0.0,0.0,79,0.00,,,0.00,,2013-03-03 12:32:00,
2013-03-03 06:42:00,12.0,7.0,30.18,NNW,347,0.0,0.0,79,0.00,,,0.00,,2013-03-03 12:42:00,
2013-03-03 06:53:00,12.0,7.0,30.19,NNW,347,0.0,0.0,80,0.00,,,0.00,,2013-03-03 12:53:00,
2013-03-03 07:01:00,12.0,7.0,30.19,NNW,347,0.0,0.0,80,0.00,,,0.00,,2013-03-03 13:01:00,
2013-03-03 07:11:00,12.0,7.0,30.19,NNW,347,0.0,0.0,80,0.00,,,0.00,,2013-03-03 13:11:00,
2013-03-03 07:21:00,15.0,11.0,30.18,NNW,347,0.0,0.0,82,0.00,,,0.00,,2013-03-03 13:21:00,
2013-03-03 07:32:00,15.0,11.0,30.18,NNW,347,0.0,0.0,82,0.00,,,0.00,,2013-03-03 13:32:00,
2013-03-03 07:42:00,15.0,11.0,30.18,NNW,347,0.0,0.0,82,0.00,,,0.00,,2013-03-03 13:42:00,
2013-03-03 07:52:00,17.0,12.0,30.19,NNW,347,0.0,0.0,82,0.00,,,0.00,,2013-03-03 13:52:00,
2013-03-03 08:02:00,17.0,12.0,30.19,NNW,347,0.0,0.0,81,0.00,,,0.00,,2013-03-03 14:02:00,
2013-03-03 08:11:00,17.0,12.0,30.19,NNW,347,0.0,0.0,81,0.00,,,0.00,,2013-03-03 14:11:00,
2013-03-03 08:21:00,18.0,13.0,30.19,NNW,347,0.0,0.0,81,0.00,,,0.00,,2013-03-03 14:21:00,
2013-03-03 08:32:00,20.0,15.0,30.19,NNW,347,0.0,0.0,82,0.00,,,0.00,,2013-03-03 14:32:00,
2013-03-03 08:42:00,20.0,15.0,30.19,NNW,347,0.0,0.0,82,0.00,,,0.00,,2013-03-03 14:42:00,
2013-03-03 08:52:00,22.0,17.0,30.19,NNW,347,0.0,0.0,80,0.00,,,0.00,,2013-03-03 14:52:00,
2013-03-03 09:01:00,23.0,17.0,30.18,NNW,347,0.0,0.0,76,0.00,,,0.00,,2013-03-03 15:01:00,
2013-03-03 09:11:00,23.0,17.0,30.18,NNW,347,0.0,0.0,76,0.00,,,0.00,,2013-03-03 15:11:00,
2013-03-03 09:22:00,23.0,15.0,30.19,NNW,347,0.0,0.0,72,0.00,,,0.00,,2013-03-03 15:22:00,
2013-03-03 09:32:00,24.0,16.0,30.19,NNW,347,0.0,0.0,71,0.00,,,0.00,,2013-03-03 15:32:00,
2013-03-03 09:42:00,24.0,16.0,30.19,NNW,347,0.0,0.0,71,0.00,,,0.00,,2013-03-03 15:42:00,
2013-03-03 09:52:00,25.0,16.0,30.18,NNW,347,0.0,0.0,69,0.00,,,0.00,,2013-03-03 15:52:00,
2013-03-03 10:01:00,26.0,17.0,30.18,NNW,347,0.0,0.0,69,0.00,,,0.00,,2013-03-03 16:01:00,
2013-03-03 10:12:00,26.0,17.0,30.18,NNW,347,0.0,0.0,69,0.00,,,0.00,,2013-03-03 16:12:00,
2013-03-03 10:21:00,27.0,17.0,30.18,NNW,347,0.0,0.0,66,0.00,,,0.00,,2013-03-03 16:21:00,
2013-03-03 10:32:00,27.0,17.0,30.18,South,172,0.0,0.0,66,0.00,,,0.00,,2013-03-03 16:32:00,
2013-03-03 10:42:00,27.0,17.0,30.18,South,172,0.0,0.0,66,0.00,,,0.00,,2013-03-03 16:42:00,
2013-03-03 10:52:00,30.0,17.0,30.18,South,172,0.0,0.0,58,0.00,,,0.00,,2013-03-03 16:52:00,
2013-03-03 11:01:00,31.0,17.0,30.18,South,172,0.0,0.0,55,0.00,,,0.00,,2013-03-03 17:01:00,
2013-03-03 11:11:00,31.0,14.0,30.17,South,189,0.0,0.0,49,0.00,,,0.00,,2013-03-03 17:11:00,
2013-03-03 11:22:00,31.0,14.0,30.17,South,189,0.0,0.0,49,0.00,,,0.00,,2013-03-03 17:22:00,
2013-03-03 11:32:00,32.0,14.0,30.17,South,189,0.0,0.0,46,0.00,,,0.00,,2013-03-03 17:32:00,
2013-03-03 11:42:00,32.0,14.0,30.17,South,189,0.0,0.0,46,0.00,,,0.00,,2013-03-03 17:42:00,
2013-03-03 11:52:00,32.0,14.0,30.16,SW,217,0.0,0.0,46,0.00,,,0.00,,2013-03-03 17:52:00,
2013-03-03 12:01:00,32.0,14.0,30.16,SSW,192,0.0,0.0,46,0.00,,,0.00,,2013-03-03 18:01:00,
2013-03-03 12:11:00,32.0,14.0,30.16,SSW,192,0.0,0.0,46,0.00,,,0.00,,2013-03-03 18:11:00,
2013-03-03 12:21:00,32.0,13.0,30.16,SSW,192,0.0,0.0,44,0.00,,,0.00,,2013-03-03 18:21:00,
2013-03-03 12:32:00,33.0,15.0,30.16,SSW,192,0.0,0.0,46,0.00,,,0.00,,2013-03-03 18:32:00,
2013-03-03 12:42:00,33.0,15.0,30.16,SSW,192,0.0,0.0,46,0.00,,,0.00,,2013-03-03 18:42:00,
2013-03-03 12:52:00,33.0,14.0,30.15,SSW,192,0.0,0.0,45,0.00,,,0.00,,2013-03-03 18:52:00,
2013-03-03 13:01:00,32.0,12.0,30.14,SSW,192,0.0,0.0,43,0.00,,,0.00,,2013-03-03 19:01:00,
2013-03-03 13:11:00,32.0,12.0,30.14,SSW,192,0.0,0.0,43,0.00,,,0.00,,2013-03-03 19:11:00,
2013-03-03 13:21:00,34.0,14.0,30.14,SSW,192,0.0,0.0,43,0.00,,,0.00,,2013-03-03 19:21:00,
2013-03-03 13:32:00,34.0,14.0,30.14,SSW,192,0.0,0.0,43,0.00,,,0.00,,2013-03-03 19:32:00,
2013-03-03 13:42:00,34.0,14.0,30.14,SSW,192,0.0,0.0,43,0.00,,,0.00,,2013-03-03 19:42:00,
2013-03-03 13:52:00,34.0,14.0,30.12,SSW,192,0.0,0.0,43,0.00,,,0.00,,2013-03-03 19:52:00,
2013-03-03 14:01:00,35.0,13.0,30.12,SSW,192,0.0,0.0,40,0.00,,,0.00,,2013-03-03 20:01:00,
2013-03-03 14:11:00,35.0,13.0,30.12,SSW,192,0.0,0.0,40,0.00,,,0.00,,2013-03-03 20:11:00,
2013-03-03 14:21:00,35.0,13.0,30.12,SSW,192,0.0,0.0,39,0.00,,,0.00,,2013-03-03 20:21:00,
2013-03-03 14:32:00,35.0,15.0,30.11,SSW,192,0.0,0.0,43,0.00,,,0.00,,2013-03-03 20:32:00,
2013-03-03 14:42:00,35.0,15.0,30.11,SSW,192,0.0,0.0,43,0.00,,,0.00,,2013-03-03 20:42:00,
2013-03-03 14:53:00,36.0,19.0,30.11,SSW,192,0.0,0.0,49,0.00,,,0.00,,2013-03-03 20:53:00,
2013-03-03 15:01:00,36.0,17.0,30.11,SSW,192,0.0,0.0,46,0.00,,,0.00,,2013-03-03 21:01:00,
2013-03-03 15:11:00,36.0,17.0,30.11,SSW,192,0.0,0.0,46,0.00,,,0.00,,2013-03-03 21:11:00,
2013-03-03 15:22:00,35.0,13.0,30.10,ENE,73,0.0,0.0,40,0.00,,,0.00,,2013-03-03 21:22:00,
2013-03-03 15:32:00,35.0,16.0,30.10,ENE,75,0.0,0.0,45,0.00,,,0.00,,2013-03-03 21:32:00,
2013-03-03 15:42:00,35.0,16.0,30.10,ENE,75,0.0,0.0,45,0.00,,,0.00,,2013-03-03 21:42:00,
2013-03-03 15:52:00,35.0,15.0,30.10,East,80,0.0,0.0,43,0.00,,,0.00,,2013-03-03 21:52:00,
2013-03-03 16:01:00,34.0,14.0,30.10,East,80,0.0,0.0,44,0.00,,,0.00,,2013-03-03 22:01:00,
2013-03-03 16:11:00,34.0,14.0,30.10,East,80,0.0,0.0,44,0.00,,,0.00,,2013-03-03 22:11:00,
2013-03-03 16:22:00,34.0,13.0,30.09,East,80,0.0,0.0,41,0.00,,,0.00,,2013-03-03 22:22:00,
2013-03-03 16:32:00,34.0,14.0,30.10,East,80,0.0,0.0,44,0.00,,,0.00,,2013-03-03 22:32:00,
2013-03-03 16:42:00,34.0,14.0,30.10,East,80,0.0,0.0,44,0.00,,,0.00,,2013-03-03 22:42:00,
2013-03-03 16:52:00,33.0,15.0,30.09,East,80,0.0,0.0,47,0.00,,,0.00,,2013-03-03 22:52:00,
2013-03-03 17:01:00,33.0,16.0,30.09,East,80,0.0,0.0,50,0.00,,,0.00,,2013-03-03 23:01:00,
2013-03-03 17:11:00,33.0,16.0,30.09,East,80,0.0,0.0,50,0.00,,,0.00,,2013-03-03 23:11:00,
2013-03-03 17:21:00,32.0,17.0,30.09,East,80,0.0,0.0,54,0.00,,,0.00,,2013-03-03 23:21:00,
2013-03-03 17:31:00,32.0,18.0,30.08,East,80,0.0,0.0,55,0.00,,,0.00,,2013-03-03 23:31:00,
2013-03-03 17:42:00,32.0,18.0,30.08,East,80,0.0,0.0,55,0.00,,,0.00,,2013-03-03 23:42:00,
2013-03-03 17:52:00,31.0,17.0,30.09,East,80,0.0,0.0,55,0.00,,,0.00,,2013-03-03 23:52:00,
2013-03-03 18:01:00,30.0,16.0,30.09,East,80,0.0,0.0,56,0.00,,,0.00,,2013-03-04 00:01:00,
2013-03-03 18:11:00,30.0,16.0,30.09,East,80,0.0,0.0,56,0.00,,,0.00,,2013-03-04 00:11:00,
2013-03-03 18:21:00,30.0,16.0,30.09,East,80,0.0,0.0,56,0.00,,,0.00,,2013-03-04 00:21:00,
2013-03-03 18:32:00,29.0,16.0,30.09,East,80,0.0,0.0,57,0.00,,,0.00,,2013-03-04 00:32:00,
2013-03-03 18:42:00,29.0,16.0,30.09,East,80,0.0,0.0,57,0.00,,,0.00,,2013-03-04 00:42:00,
2013-03-03 18:52:00,29.0,16.0,30.09,East,80,0.0,0.0,59,0.00,,,0.00,,2013-03-04 00:52:00,
2013-03-03 19:01:00,28.0,16.0,30.09,East,80,0.0,0.0,61,0.00,,,0.00,,2013-03-04 01:01:00,
2013-03-03 19:11:00,28.0,16.0,30.09,East,80,0.0,0.0,61,0.00,,,0.00,,2013-03-04 01:11:00,
2013-03-03 19:21:00,28.0,17.0,30.09,East,80,0.0,0.0,63,0.00,,,0.00,,2013-03-04 01:21:00,
2013-03-03 19:32:00,27.0,16.0,30.09,East,80,0.0,0.0,64,0.00,,,0.00,,2013-03-04 01:32:00,
2013-03-03 19:42:00,27.0,16.0,30.09,East,80,0.0,0.0,64,0.00,,,0.00,,2013-03-04 01:42:00,
2013-03-03 19:52:00,27.0,17.0,30.09,East,80,0.0,0.0,65,0.00,,,0.00,,2013-03-04 01:52:00,
2013-03-03 20:01:00,27.0,17.0,30.09,East,80,0.0,0.0,66,0.00,,,0.00,,2013-03-04 02:01:00,
2013-03-03 20:11:00,27.0,17.0,30.09,East,80,0.0,0.0,66,0.00,,,0.00,,2013-03-04 02:11:00,
2013-03-03 20:22:00,27.0,18.0,30.09,East,80,0.0,0.0,68,0.00,,,0.00,,2013-03-04 02:22:00,
2013-03-03 20:32:00,27.0,18.0,30.09,East,80,0.0,0.0,68,0.00,,,0.00,,2013-03-04 02:32:00,
2013-03-03 20:42:00,27.0,18.0,30.09,East,80,0.0,0.0,68,0.00,,,0.00,,2013-03-04 02:42:00,
2013-03-03 20:52:00,27.0,17.0,30.09,East,80,0.0,0.0,66,0.00,,,0.00,,2013-03-04 02:52:00,
2013-03-03 21:01:00,28.0,18.0,30.09,East,80,0.0,0.0,66,0.00,,,0.00,,2013-03-04 03:01:00,
2013-03-03 21:11:00,28.0,18.0,30.09,East,80,0.0,0.0,66,0.00,,,0.00,,2013-03-04 03:11:00,
2013-03-03 21:21:00,28.0,18.0,30.09,East,80,0.0,0.0,67,0.00,,,0.00,,2013-03-04 03:21:00,
2013-03-03 21:32:00,28.0,18.0,30.09,East,80,0.0,0.0,67,0.00,,,0.00,,2013-03-04 03:32:00,
2013-03-03 21:42:00,28.0,19.0,30.10,East,80,0.0,0.0,68,0.00,,,0.00,,2013-03-04 03:42:00,
2013-03-03 21:52:00,28.0,19.0,30.10,East,80,0.0,0.0,68,0.00,,,0.00,,2013-03-04 03:52:00,
2013-03-03 22:01:00,28.0,18.0,30.10,East,80,0.0,0.0,66,0.00,,,0.00,,2013-03-04 04:01:00,
2013-03-03 22:11:00,28.0,18.0,30.10,East,80,0.0,0.0,66,0.00,,,0.00,,2013-03-04 04:11:00,
2013-03-03 22:22:00,28.0,18.0,30.09,East,80,0.0,0.0,66,0.00,,,0.00,,2013-03-04 04:22:00,
2013-03-03 22:32:00,28.0,18.0,30.09,ESE,111,0.0,0.0,65,0.00,,,0.00,,2013-03-04 04:32:00,
2013-03-03 22:42:00,28.0,18.0,30.09,ESE,111,0.0,0.0,65,0.00,,,0.00,,2013-03-04 04:42:00,
2013-03-03 22:51:00,29.0,18.0,30.09,East,100,0.0,0.0,64,0.00,,,0.00,,2013-03-04 04:51:00,
2013-03-03 23:01:00,29.0,18.0,30.09,ESE,111,0.0,0.0,64,0.00,,,0.00,,2013-03-04 05:01:00,
2013-03-03 23:11:00,29.0,18.0,30.09,ESE,111,0.0,0.0,64,0.00,,,0.00,,2013-03-04 05:11:00,
2013-03-03 23:22:00,29.0,18.0,30.09,ESE,105,0.0,0.0,62,0.00,,,0.00,,2013-03-04 05:22:00,
2013-03-03 23:31:00,29.0,18.0,30.09,East,99,0.0,0.0,62,0.00,,,0.00,,2013-03-04 05:31:00,
2013-03-03 23:42:00,29.0,18.0,30.09,East,99,0.0,0.0,62,0.00,,,0.00,,2013-03-04 05:42:00,
2013-03-03 23:52:00,28.0,18.0,30.09,East,98,0.0,0.0,65,0.00,,,0.00,,2013-03-04 05:52:00,